Location: Newark
(25.4297°S, 49.2719°W)
Time: 03:21:10
(UTC+00:00)

Tiros 1 - Pass Details

Date: 17 November 2019
Orbit: 630 x 664 km, 48.4° (Epoch: 08 December)

Event Time Altitude Azimuth Distance (km) Brightness Sun altitude
Exits shadow 05:31:36 29° 169° (S) 1,233 9.0 -32.6°
Drops below altitude 10° 05:34:15 10° 148° (SSE) 2,097 10.6 -32.2°
Sets 05:36:43 0° 141° (SE) 3,012 11.7 -31.8°
